Location: Dunedin
(45.8670°S, 170.5000°E)
Time: 22:58:14
(UTC+13:00)

Atlas Centaur 2 - Pass Details

Date: 24 January 2019
Orbit: 459 x 1311 km, 30.4° (Epoch: 15 October)

Event Time Altitude Azimuth Distance (km) Brightness Sun altitude
Rises 22:24:21 0° 303° (WNW) 4,203 6.0 -10.0°
Reaches altitude 10° 22:27:46 10° 314° (NW) 3,296 5.3 -10.4°
Maximum altitude 22:34:26 26° 6° (N) 2,327 4.1 -11.3°
Enters shadow 22:39:35 15° 50° (NE) 2,928 4.3 -11.9°
